Weather History for Dillon, MT

Change the Weather History Date:

Friday, April 12, 2013

  Actual Average Record
Temperature  
Mean Temperature 39 °F 40 °F  
Max Temperature 57 °F 53 °F 76 °F (1934)
Min Temperature 21 °F 28 °F 12 °F (1975)
Degree Days  
Heating Degree Days 26    
Month to date heating degree days 281  
Since 1 July heating degree days 6612  
Cooling Degree Days 0    
Month to date cooling degree days 0  
Year to date cooling degree days 0  
Moisture  
Dew Point 13 °F    
Average Humidity 45    
Maximum Humidity 77    
Minimum Humidity 12    
Precipitation  
Precipitation 0.00 in 0.04 in 0.28 in (2001)
Month to date precipitation 0.11 0.39  
Year to date precipitation 0.51 1.47  
Snow  
Snow 0.00 in - - ()
Snow Depth 0.00 in    
Sea Level Pressure  
Sea Level Pressure 29.89 in    
Wind  
Wind Speed 9 mph (South)    
Max Wind Speed 30 mph    
Max Gust Speed 37 mph    
Visibility 10 miles    
Events      
T = Trace of Precipitation, MM = Missing Value Source: NWS Daily Summary

Daily Weather History Graph

Daily Weather History Graph

Search for Another Location

Airport:

Trip Planner

Search our weather history database for the weather conditions in past years. The results will help you decide how hot, cold, wet, or windy it might be!

Date:

Astronomy

Apr. 12, 2013 Rise Set
Actual Time 6:49 AM MDT 8:12 PM MDT
Civil Twilight 6:19 AM MDT 8:43 PM MDT
Nautical Twilight 5:42 AM MDT 9:20 PM MDT
Astronomical Twilight 5:03 AM MDT 9:59 PM MDT
Moon 7:56 AM MDT (4/12) 10:54 PM MDT (4/12)
Length of Visible Light 14h 24m
Length of Day
13h 22m
Waxing Crescent, 5% of the Moon is Illuminated
Apr 12
Waxing Crescent
Apr 18
First Quarter
Apr 25
Full
May 2
Last Quarter
May 9
New

Hourly Weather History & Observations

Time (MDT) Temp. Windchill Dew Point Humidity Pressure Visibility Wind Dir Wind Speed Gust Speed Precip Events Conditions
12:53 AM 28.9 °F 25.2 °F 17.1 °F 61% 29.99 in 10.0 mi East 3.5 mph - N/A   Mostly Cloudy
1:53 AM 30.9 °F 27.5 °F 18.0 °F 59% 29.98 in 10.0 mi ESE 3.5 mph - N/A   Partly Cloudy
2:53 AM 25.0 °F 19.3 °F 17.1 °F 72% 30.00 in 10.0 mi SE 4.6 mph - N/A   Clear
3:53 AM 23.0 °F 13.9 °F 16.0 °F 74% 30.03 in 10.0 mi ESE 8.1 mph - N/A   Clear
4:53 AM 21.9 °F 11.7 °F 15.1 °F 75% 30.03 in 10.0 mi ESE 9.2 mph - N/A   Clear
5:53 AM 23.0 °F 18.4 °F 15.1 °F 72% 30.04 in 10.0 mi South 3.5 mph - N/A   Clear
6:53 AM 25.0 °F 15.5 °F 15.1 °F 66% 30.05 in 10.0 mi South 9.2 mph - N/A   Clear
7:53 AM 28.9 °F 21.1 °F 17.1 °F 61% 30.05 in 10.0 mi South 8.1 mph - N/A   Clear
8:53 AM 32.0 °F 28.7 °F 19.0 °F 59% 30.06 in 10.0 mi SW 3.5 mph - N/A   Clear
9:53 AM 35.1 °F 28.6 °F 18.0 °F 50% 30.06 in 10.0 mi SSW 8.1 mph - N/A   Clear
10:53 AM 37.9 °F 35.5 °F 15.1 °F 39% 30.05 in 10.0 mi WSW 3.5 mph - N/A   Clear
11:53 AM 41.0 °F - 12.9 °F 32% 30.02 in 10.0 mi Calm Calm - N/A   Clear
12:53 PM 44.1 °F 42.5 °F 10.9 °F 26% 29.98 in 10.0 mi Variable 3.5 mph - N/A   Clear
1:53 PM 45.0 °F 41.8 °F 14.0 °F 29% 29.93 in 10.0 mi Variable 5.8 mph - N/A   Clear
2:53 PM 48.9 °F - 12.0 °F 23% 29.88 in 10.0 mi ESE 3.5 mph - N/A   Clear
3:53 PM 51.1 °F - 5.0 °F 15% 29.84 in 10.0 mi Variable 5.8 mph - N/A   Scattered Clouds
4:53 PM 55.9 °F - 3.9 °F 12% 29.78 in 10.0 mi SW 15.0 mph 26.5 mph N/A   Clear
5:53 PM 55.0 °F - 3.0 °F 12% 29.74 in 10.0 mi SW 11.5 mph 17.3 mph N/A   Overcast
6:53 PM 53.1 °F - 3.0 °F 13% 29.72 in 10.0 mi NW 3.5 mph - N/A   Overcast
7:53 PM 48.9 °F - 10.0 °F 21% 29.70 in 10.0 mi ESE 8.1 mph - N/A   Mostly Cloudy
8:53 PM 50.0 °F - 15.1 °F 25% 29.65 in 10.0 mi South 15.0 mph - N/A   Overcast
9:53 PM 48.0 °F - 14.0 °F 26% 29.62 in 10.0 mi South 16.1 mph - N/A   Mostly Cloudy
10:53 PM 48.0 °F - 14.0 °F 26% 29.60 in 10.0 mi South 16.1 mph - N/A   Mostly Cloudy
11:53 PM 48.0 °F - 14.0 °F 26% 29.59 in 10.0 mi WSW 24.2 mph 33.4 mph N/A   Overcast